H1 CPF 2 NER 2023 10 2 9 275 01 glonass137 H2 1705501 9137 42939 2023 10 2 0 0 0 2023 10 5 23 45 0 900 1 1 0 0 0 1 H9 10 0 60219 0.00000 0 -5820992.283 -15592430.231 19352908.227 10 0 60219 900.00000 0 -3781836.798 -14184229.702 20881218.317 10 0 60219 1800.00000 0 -1505011.881 -12845425.971 22004790.289 10 0 60219 2700.00000 0 962789.283 -11624401.610 22701823.733 10 0 60219 3600.00000 0 3566181.402 -10561042.855 22958763.319 10 0 60219 4500.00000 0 6243138.543 -9685132.045 22770562.554 10 0 60219 5400.00000 0 8927328.517 -9015180.004 22140785.830 10 0 60219 6300.00000 0 11550635.008 -8557746.773 21081546.528 10 0 60219 7200.00000 0 14045764.264 -8307278.907 19613281.767 10 0 60219 8100.00000 0 16348829.432 -8246470.216 17764367.229 10 0 60219 9000.00000 0 18401806.076 -8347131.049 15570578.423 10 0 60219 9900.00000 0 20154757.294 -8571530.030 13074407.619 10 0 60219 10800.00000 0 21567735.957 -8874152.137 10324248.575 10 0 60219 11700.00000 0 22612284.565 -9203799.399 7373463.893 10 0 60219 12600.00000 0 23272469.708 -9505945.602 4279352.476 10 0 60219 13500.00000 0 23545407.361 -9725245.329 1102036.824 10 0 60219 14400.00000 0 23441256.566 -9808090.676 -2096708.124 10 0 60219 15300.00000 0 22982681.462 -9705106.536 -5254661.381 10 0 60219 16200.00000 0 22203804.154 -9373477.622 -8310373.335 10 0 60219 17100.00000 0 21148692.645 -8779007.292 -11204369.619 10 0 60219 18000.00000 0 19869447.881 -7897819.497 -13880316.987 10 0 60219 18900.00000 0 18423971.018 -6717630.276 -16286127.563 10 0 60219 19800.00000 0 16873505.636 -5238533.538 -18374979.196 10 0 60219 20700.00000 0 15280059.079 -3473266.532 -20106231.459 10 0 60219 21600.00000 0 13703812.007 -1446942.546 -21446219.153 10 0 60219 22500.00000 0 12200625.535 803739.063 -22368907.838 10 0 60219 23400.00000 0 10819750.884 3231773.269 -22856398.750 10 0 60219 24300.00000 0 9601837.603 5781567.330 -22899273.644 10 0 60219 25200.00000 0 8577323.506 8391025.098 -22496773.259 10 0 60219 26100.00000 0 7765273.179 10993911.087 -21656806.397 10 0 60219 27000.00000 0 7172712.750 13522396.101 -20395789.861 10 0 60219 27900.00000 0 6794487.641 15909678.703 -18738322.771 10 0 60219 28800.00000 0 6613647.918 18092573.608 -16716701.889 10 0 60219 29700.00000 0 6602343.613 20013959.589 -14370287.673 10 0 60219 30600.00000 0 6723190.953 21624985.362 -11744733.601 10 0 60219 31500.00000 0 6931050.623 22886942.082 -8891094.008 10 0 60219 32400.00000 0 7175141.927 23772725.063 -5864828.049 10 0 60219 33300.00000 0 7401402.616 24267824.634 -2724719.395 10 0 60219 34200.00000 0 7554993.960 24370805.739 468267.028 10 0 60219 35100.00000 0 7582844.649 24093257.382 3652168.750 10 0 60219 36000.00000 0 7436125.629 23459215.228 6765226.810 10 0 60219 36900.00000 0 7072551.121 22504082.634 9747080.655 10 0 60219 37800.00000 0 6458408.502 21273096.295 12539933.842 10 0 60219 38700.00000 0 5570231.299 19819401.465 15089668.233 10 0 60219 39600.00000 0 4396044.622 18201817.803 17346885.530 10 0 60219 40500.00000 0 2936130.247 16482389.404 19267856.693 10 0 60219 41400.00000 0 1203278.629 14723821.230 20815361.671 10 0 60219 42300.00000 0 -777483.636 12986908.505 21959404.042 10 0 60219 43200.00000 0 -2969680.706 11328065.648 22677787.572 10 0 60219 44100.00000 0 -5326657.389 9797056.921 22956544.223 10 0 60219 45000.00000 0 -7793280.827 8435022.523 22790205.744 10 0 60219 45900.00000 0 -10308004.910 7272881.564 22181913.733 10 0 60219 46800.00000 0 -12805213.421 6330177.807 21143365.757 10 0 60219 47700.00000 0 -15217746.157 5614415.840 19694598.027 10 0 60219 48600.00000 0 -17479504.415 5120915.086 17863607.909 10 0 60219 49500.00000 0 -19528028.600 4833187.675 15685822.489 10 0 60219 50400.00000 0 -21306941.253 4723824.369 13203422.312 10 0 60219 51300.00000 0 -22768153.983 4755851.434 10464532.259 10 0 60219 52200.00000 0 -23873746.027 4884501.487 7522294.275 10 0 60219 53100.00000 0 -24597435.472 5059323.616 4433839.294 10 0 60219 54000.00000 0 -24925580.915 5226543.454 1259177.995 10 0 60219 54900.00000 0 -24857670.881 5331572.908 -1939968.022 10 0 60219 55800.00000 0 -24406279.794 5321562.540 -5101371.435 10 0 60219 56700.00000 0 -23596491.909 5147887.425 -8163516.653 10 0 60219 57600.00000 0 -22464817.172 4768459.871 -11066804.925 10 0 60219 58500.00000 0 -21057644.683 4149769.617 -13754722.618 10 0 60219 59400.00000 0 -19429299.083 3268563.591 -16174949.001 10 0 60219 60300.00000 0 -17639782.070 2113092.693 -18280381.185 10 0 60219 61200.00000 0 -15752294.556 683871.471 -20030055.646 10 0 60219 62100.00000 0 -13830644.072 -1006082.653 -21389948.097 10 0 60219 63000.00000 0 -11936646.682 -2931541.870 -22333636.086 10 0 60219 63900.00000 0 -10127632.572 -5055880.877 -22842811.548 10 0 60219 64800.00000 0 -8454159.798 -7332376.910 -22907633.689 10 0 60219 65700.00000 0 -6958031.563 -9705943.139 -22526915.741 10 0 60219 66600.00000 0 -5670699.357 -12115223.429 -21708142.401 10 0 60219 67500.00000 0 -4612117.784 -14494961.376 -20467318.080 10 0 60219 68400.00000 0 -3790097.761 -16778545.022 -18828649.256 10 0 60219 69300.00000 0 -3200183.697 -18900621.342 -16824067.463 10 0 60219 70200.00000 0 -2826058.186 -20799671.671 -14492602.461 10 0 60219 71100.00000 0 -2640455.503 -22420440.928 -11879617.990 10 0 60219 72000.00000 0 -2606543.899 -23716119.560 -9035925.239 10 0 60219 72900.00000 0 -2679716.923 -24650187.569 -6016791.495 10 0 60219 73800.00000 0 -2809716.943 -25197844.166 -2880863.515 10 0 60219 74700.00000 0 -2943000.118 -25346963.968 310973.152 10 0 60219 75600.00000 0 -3025242.091 -25098540.583 3496776.463 10 0 60219 76500.00000 0 -3003877.915 -24466599.916 6614748.658 10 0 60219 77400.00000 0 -2830568.514 -23477587.681 9604432.065 10 0 60219 78300.00000 0 -2463489.265 -22169257.620 12407876.828 10 0 60219 79200.00000 0 -1869343.986 -20589107.517 14970758.193 10 0 60219 80100.00000 0 -1025019.273 -18792428.874 17243422.145 10 0 60219 81000.00000 0 81190.679 -16840051.825 19181839.839 10 0 60219 81900.00000 0 1448840.708 -14795879.227 20748453.135 10 0 60219 82800.00000 0 3065104.618 -12724312.304 21912895.752 10 0 60219 83700.00000 0 4905069.059 -10687674.355 22652576.910 10 0 60219 84600.00000 0 6932540.367 -8743738.855 22953116.858 10 0 60219 85500.00000 0 9101332.215 -6943463.849 22808626.297 10 0 60220 0.00000 0 11356981.917 -5329026.007 22221824.505 10 0 60220 900.00000 0 13638826.936 -3932234.417 21203993.248 10 0 60220 1800.00000 0 15882353.775 -2773391.546 19774767.685 10 0 60220 2700.00000 0 18021727.046 -1860645.400 17961766.390 10 0 60220 3600.00000 0 19992391.563 -1189861.740 15800067.244 10 0 60220 4500.00000 0 21733640.995 -745020.600 13331537.950 10 0 60220 5400.00000 0 23191046.065 -499120.513 10604033.038 10 0 60220 6300.00000 0 24318640.787 -415552.374 7670471.947 10 0 60220 7200.00000 0 25080774.804 -449884.957 4587815.418 10 0 60220 8100.00000 0 25453553.505 -551986.500 1415959.734 10 0 60220 9000.00000 0 25425804.637 -668392.239 -1783429.702 10 0 60220 9900.00000 0 24999529.891 -744817.008 -4948122.297 10 0 60220 10800.00000 0 24189821.698 -728705.541 -8016539.646 10 0 60220 11700.00000 0 23024248.110 -571711.270 -10928961.759 10 0 60220 12600.00000 0 21541731.264 -231997.255 -13628697.652 10 0 60220 13500.00000 0 19790966.523 323739.641 -16063196.604 10 0 60220 14400.00000 0 17828448.814 1118608.416 -18185077.630 10 0 60220 15300.00000 0 15716189.407 2164299.031 -19953056.517 10 0 60220 16200.00000 0 13519219.286 3460345.934 -21332752.059 10 0 60220 17100.00000 0 11302984.094 4993912.205 -22297355.715 10 0 60220 18000.00000 0 9130739.986 6740104.383 -22828151.766 10 0 60220 18900.00000 0 7061059.327 8662805.552 -22914878.216 10 0 60220 19800.00000 0 5145550.226 10715992.406 -22555921.782 10 0 60220 20700.00000 0 3426884.621 12845481.581 -21758343.663 10 0 60220 21600.00000 0 1937216.383 14991032.556 -20537736.035 10 0 60220 22500.00000 0 697054.306 17088719.450 -18917912.426 10 0 60220 23400.00000 0 -285364.370 19073472.735 -16930438.339 10 0 60220 24300.00000 0 -1014175.392 20881684.813 -14614011.537 10 0 60220 25200.00000 0 -1505461.443 22453770.686 -12013704.236 10 0 60220 26100.00000 0 -1786318.353 23736576.827 -9180082.222 10 0 60220 27000.00000 0 -1893454.597 24685537.755 -6168218.240 10 0 60220 27900.00000 0 -1871384.699 25266490.396 -3036619.092 10 0 60220 28800.00000 0 -1770294.097 25457070.720 153912.378 10 0 60220 29700.00000 0 -1643666.734 25247634.688 3341458.068 10 0 60220 30600.00000 0 -1545776.413 24641665.561 6464185.028 10 0 60220 31500.00000 0 -1529148.468 23655651.135 9461542.063 10 0 60220 32400.00000 0 -1642099.300 22318436.598 12275429.392 10 0 60220 33300.00000 0 -1926457.812 20670080.568 14851318.956 10 0 60220 34200.00000 0 -2415564.939 18760262.385 17139304.095 10 0 60220 35100.00000 0 -3132635.604 16646307.216 19095058.922 10 0 60220 36000.00000 0 -4089552.270 14390911.063 20680689.651 10 0 60220 36900.00000 0 -5286141.133 12059659.978 21865462.213 10 0 60220 37800.00000 0 -6709962.018 9718445.920 22626392.934 10 0 60220 38700.00000 0 -8336621.776 7430885.743 22948691.543 10 0 60220 39600.00000 0 -10130599.344 5255849.489 22826048.382 10 0 60220 40500.00000 0 -12046549.558 3245199.539 22260760.405 10 0 60220 41400.00000 0 -14031032.964 1441833.498 21263693.347 10 0 60220 42300.00000 0 -16024601.151 -121888.762 19854080.210 10 0 60220 43200.00000 0 -17964152.213 -1425269.197 18059159.146 10 0 60220 44100.00000 0 -19785459.356 -2459900.570 15913656.648 10 0 60220 45000.00000 0 -21425768.050 -3229774.439 13459124.905 10 0 60220 45900.00000 0 -22826353.683 -3750863.931 10743145.026 10 0 60220 46800.00000 0 -23934932.802 -4050198.994 7818410.593 10 0 60220 47700.00000 0 -24707826.536 -4164473.228 4741708.631 10 0 60220 48600.00000 0 -25111784.726 -4138241.277 1572817.438 10 0 60220 49500.00000 0 -25125393.203 -4021783.325 -1626657.329 10 0 60220 50400.00000 0 -24740003.956 -3868727.607 -4794485.264 10 0 60220 51300.00000 0 -23960147.945 -3733532.429 -7869028.437 10 0 60220 52200.00000 0 -22803412.273 -3668935.379 -10790448.709 10 0 60220 53100.00000 0 -21299786.082 -3723479.026 -13501880.604 10 0 60220 54000.00000 0 -19490502.199 -3939219.195 -15950545.962 10 0 60220 54900.00000 0 -17426422.958 -4349714.178 -18088787.902 10 0 60220 55800.00000 0 -15166037.952 -4978381.211 -19875003.298 10 0 60220 56700.00000 0 -12773157.796 -5837290.839 -21274455.312 10 0 60220 57600.00000 0 -10314400.669 -6926451.067 -22259950.065 10 0 60220 58500.00000 0 -7856576.926 -8233612.360 -22812364.408 10 0 60220 59400.00000 0 -5464081.077 -9734602.379 -22921014.827 10 0 60220 60300.00000 0 -3196399.782 -11394176.983 -22583860.743 10 0 60220 61200.00000 0 -1105839.383 -13167352.144 -21807538.661 10 0 60220 62100.00000 0 764433.017 -15001161.223 -20607226.985 10 0 60220 63000.00000 0 2381954.317 -16836764.180 -19006344.482 10 0 60220 63900.00000 0 3726072.058 -18611820.416 -17036088.610 10 0 60220 64800.00000 0 4788548.360 -20263025.961 -14734822.954 10 0 60220 65700.00000 0 5573637.695 -21728708.770 -12147325.919 10 0 60220 66600.00000 0 6097637.179 -22951373.417 -9323915.523 10 0 60220 67500.00000 0 6387930.145 -23880088.658 -6319467.559 10 0 60220 68400.00000 0 6481565.083 -24472617.885 -3192346.462 10 0 60220 69300.00000 0 6423431.399 -24697203.373 -3269.962 10 0 60220 70200.00000 0 6264110.306 -24533929.762 3185870.149 10 0 60220 71100.00000 0 6057492.621 -23975609.971 6313208.049 10 0 60220 72000.00000 0 5858264.838 -23028156.752 9318101.261 10 0 60220 72900.00000 0 5719370.087 -21710424.673 12142302.231 10 0 60220 73800.00000 0 5689551.410 -20053529.388 14731081.621 10 0 60220 74700.00000 0 5811080.994 -18099672.756 17034281.986 10 0 60220 75600.00000 0 6117771.066 -15900522.769 19007282.072 10 0 60220 76500.00000 0 6633350.142 -13515215.478 20611853.885 10 0 60220 77400.00000 0 7370272.990 -11008061.524 21816896.738 10 0 60220 78300.00000 0 8329014.623 -8446051.830 22599034.959 10 0 60220 79200.00000 0 9497878.516 -5896264.988 22943068.363 10 0 60220 80100.00000 0 10853327.995 -3423282.853 22842267.256 10 0 60220 81000.00000 0 12360828.142 -1086720.333 22298506.399 10 0 60220 81900.00000 0 13976164.447 1061029.307 21322235.200 10 0 60220 82800.00000 0 15647184.613 2976741.048 19932284.117 10 0 60220 83700.00000 0 17315892.244 4627916.680 18155510.248 10 0 60220 84600.00000 0 18920806.256 5993891.147 16026287.840 10 0 60220 85500.00000 0 20399488.362 7066441.083 13585852.480 10 0 60221 0.00000 0 21691133.401 7849870.424 10881510.782 10 0 60221 900.00000 0 22739114.826 8360570.148 7965728.381 10 0 60221 1800.00000 0 23493376.630 8626069.897 4895116.945 10 0 60221 2700.00000 0 23912572.913 8683623.026 1729334.654 10 0 60221 3600.00000 0 23965862.351 8578384.057 -1470074.956 10 0 60221 4500.00000 0 23634281.630 8361256.501 -4640884.205 10 0 60221 5400.00000 0 22911638.575 8086502.758 -7721398.286 10 0 60221 6300.00000 0 21804886.150 7809218.153 -10651663.584 10 0 60221 7200.00000 0 20333960.455 7582777.181 -13374642.740 10 0 60221 8100.00000 0 18531088.674 7456361.257 -15837332.669 10 0 60221 9000.00000 0 16439595.376 7472673.831 -17991802.967 10 0 60221 9900.00000 0 14112256.933 7665940.695 -19796133.831 10 0 60221 10800.00000 0 11609272.848 8060281.026 -21215234.886 10 0 60221 11700.00000 0 8995938.852 8668518.846 -22221528.878 10 0 60221 12600.00000 0 6340119.094 9491485.754 -22795487.023 10 0 60221 13500.00000 0 3709622.913 10517844.820 -22926005.904 10 0 60221 14400.00000 0 1169595.411 11724443.448 -22610618.987 10 0 60221 15300.00000 0 -1219969.727 13077180.597 -21855539.096 10 0 60221 16200.00000 0 -3406492.220 14532352.031 -20675531.475 10 0 60221 17100.00000 0 -5346748.625 16038417.173 -19093620.283 10 0 60221 18000.00000 0 -7008417.422 17538113.322 -17140634.593 10 0 60221 18900.00000 0 -8371162.737 18970828.461 -14854602.976 10 0 60221 19800.00000 0 -9427213.184 20275132.947 -12280008.697 10 0 60221 20700.00000 0 -10181413.416 21391363.730 -9466920.223 10 0 60221 21600.00000 0 -10650748.185 22264152.498 -6470014.207 10 0 60221 22500.00000 0 -10863360.796 22844791.571 -3347510.158 10 0 60221 23400.00000 0 -10857109.018 23093338.179 -160037.836 10 0 60221 24300.00000 0 -10677720.807 22980368.822 3030540.377 10 0 60221 25200.00000 0 -10376628.930 22488310.180 6162329.059 10 0 60221 26100.00000 0 -10008576.762 21612290.856 9174597.837 10 0 60221 27000.00000 0 -9629096.951 20360478.360 12008954.800 10 0 60221 27900.00000 0 -9291969.654 18753887.277 14610472.715 10 0 60221 28800.00000 0 -9046767.591 16825666.544 16928746.638 10 0 60221 29700.00000 0 -8936591.275 14619895.389 18918863.064 10 0 60221 30600.00000 0 -8996089.528 12189937.613 20542262.664 10 0 60221 31500.00000 0 -9249848.397 9596422.090 21767480.716 10 0 60221 32400.00000 0 -9711216.064 6904932.481 22570751.761 10 0 60221 33300.00000 0 -10381613.280 4183500.976 22936467.488 10 0 60221 34200.00000 0 -11250358.661 1500008.793 22857479.454 10 0 60221 35100.00000 0 -12295016.977 -1080400.068 22335240.984 10 0 60221 36000.00000 0 -13482256.860 -3497785.913 21379785.319 10 0 60221 36900.00000 0 -14769183.291 -5699660.095 20009539.929 10 0 60221 37800.00000 0 -16105090.403 -7642919.144 18250979.791 10 0 60221 38700.00000 0 -17433562.489 -9295386.735 16138125.262 10 0 60221 39600.00000 0 -18694836.250 -10636899.835 13711893.147 10 0 60221 40500.00000 0 -19828326.023 -11659894.131 11019312.405 10 0 60221 41400.00000 0 -20775206.325 -12369464.559 8112618.684 10 0 60221 42300.00000 0 -21480943.149 -12782898.562 5048244.543 10 0 60221 43200.00000 0 -21897666.994 -12928701.928 1885724.567 10 0 60221 44100.00000 0 -21986286.843 -12845158.531 -1313463.394 10 0 60221 45000.00000 0 -21718254.778 -12578485.137 -4487097.971 10 0 60221 45900.00000 0 -21076905.524 -12180659.856 -7573431.031 10 0 60221 46800.00000 0 -20058312.986 -11707016.853 -10512396.931 10 0 60221 47700.00000 0 -18671626.327 -11213710.018 -13246789.720 10 0 60221 48600.00000 0 -16938870.218 -10755154.013 -15723384.453 10 0 60221 49500.00000 0 -14894216.640 -10381551.996 -17893979.957 10 0 60221 50400.00000 0 -12582758.080 -10136615.650 -19716342.103 10 0 60221 51300.00000 0 -10058833.068 -10055574.761 -21155028.839 10 0 60221 52200.00000 0 -7383973.783 -10163561.135 -22182080.844 10 0 60221 53100.00000 0 -4624561.383 -10474435.581 -22777564.413 10 0 60221 54000.00000 0 -1849286.737 -10990107.735 -22929956.345 10 0 60221 54900.00000 0 873477.777 -11700377.518 -22636363.730 10 0 60221 55800.00000 0 3478286.208 -12583304.891 -21902574.802 10 0 60221 56700.00000 0 5905098.645 -13606092.219 -20742940.320 10 0 60221 57600.00000 0 8101530.004 -14726441.937 -19180088.179 10 0 60221 58500.00000 0 10024775.292 -15894332.168 -17244477.114 10 0 60221 59400.00000 0 11643132.365 -17054135.343 -14973798.494 10 0 60221 60300.00000 0 12937060.144 -18146990.489 -12412238.038 10 0 60221 61200.00000 0 13899729.716 -19113329.113 -9609612.069 10 0 60221 62100.00000 0 14537047.111 -19895448.229 -6620395.335 10 0 60221 63000.00000 0 14867148.643 -20440022.062 -3502659.546 10 0 60221 63900.00000 0 14919391.830 -20700446.651 -316943.553 10 0 60221 64800.00000 0 14732885.985 -20638918.587 2874922.610 10 0 60221 65700.00000 0 14354625.800 -20228160.477 6011016.785 10 0 60221 66600.00000 0 13837307.692 -19452720.548 9030523.421 10 0 60221 67500.00000 0 13236921.761 -18309791.808 11874908.752 10 0 60221 68400.00000 0 12610221.342 -16809516.270 14489049.895 10 0 60221 69300.00000 0 12012176.904 -14974761.288 16822296.342 10 0 60221 70200.00000 0 11493521.407 -12840376.941 18829443.948 10 0 60221 71100.00000 0 11098490.101 -10451964.847 20471603.314 10 0 60221 72000.00000 0 10862849.381 -7864208.882 21716946.598 10 0 60221 72900.00000 0 10812297.168 -5138836.192 22541319.127 10 0 60221 73800.00000 0 10961301.684 -2342291.922 22928704.702 10 0 60221 74700.00000 0 11312427.354 456777.183 22871536.075 10 0 60221 75600.00000 0 11856176.342 3190127.423 22370844.785 10 0 60221 76500.00000 0 12571352.980 5792504.485 21436247.316 10 0 60221 77400.00000 0 13425936.610 8204105.494 20085767.349 10 0 60221 78300.00000 0 14378427.292 10372815.754 18345496.745 10 0 60221 79200.00000 0 15379609.014 12256128.154 16249100.799 10 0 60221 80100.00000 0 16374657.424 13822666.006 13837176.195 10 0 60221 81000.00000 0 17305504.337 15053246.243 11156472.981 10 0 60221 81900.00000 0 18113360.103 15941438.818 8258994.633 10 0 60221 82800.00000 0 18741287.744 16493598.996 5200992.951 10 0 60221 83700.00000 0 19136720.067 16728371.278 2041876.879 10 0 60221 84600.00000 0 19253812.877 16675685.995 -1156943.621 10 0 60221 85500.00000 0 19055533.876 16375291.101 -4333255.789 10 0 60222 0.00000 0 18515397.795 15874881.601 -7425260.241 10 0 60222 900.00000 0 17618772.665 15227905.975 -10372782.191 10 0 60222 1800.00000 0 16363701.364 14491143.772 -13118449.081 10 0 60222 2700.00000 0 14761201.399 13722156.827 -15608816.262 10 0 60222 3600.00000 0 12835029.625 12976723.415 -17795413.838 10 0 60222 4500.00000 0 10620920.472 12306364.473 -19635695.278 10 0 60222 5400.00000 0 8165328.838 11756067.192 -21093868.683 10 0 60222 6300.00000 0 5523729.658 11362302.684 -22141594.385 10 0 60222 7200.00000 0 2758544.862 11151421.722 -22758535.371 10 0 60222 8100.00000 0 -63216.089 11138496.327 -22932750.115 10 0 60222 9000.00000 0 -2872503.952 11326655.883 -22660920.563 10 0 60222 9900.00000 0 -5600859.923 11706945.491 -21948411.294 10 0 60222 10800.00000 0 -8183019.224 12258712.083 -20809159.150 10 0 60222 11700.00000 0 -10559380.306 12950501.531 -19265395.887 10 0 60222 12600.00000 0 -12678237.595 13741428.438 -17347209.587 10 0 60222 13500.00000 0 -14497685.811 14582960.379 -15091953.644 10 0 60222 14400.00000 0 -15987117.676 15421040.946 -12543515.041 10 0 60222 15300.00000 0 -17128253.906 16198461.668 -9751456.398 10 0 60222 16200.00000 0 -17915664.022 16857382.459 -6770048.687 10 0 60222 17100.00000 0 -18356757.878 17341894.034 -3657213.661 10 0 60222 18000.00000 0 -18471249.969 17600514.002 -473396.874 10 0 60222 18900.00000 0 -18290120.667 17588511.236 2719606.589 10 0 60222 19800.00000 0 -17854119.555 17269960.461 5859850.621 10 0 60222 20700.00000 0 -17211875.072 16619440.403 8886437.435 10 0 60222 21600.00000 0 -16417691.011 15623303.955 11740694.486 10 0 60222 22500.00000 0 -15529123.217 14280466.773 14367306.375 10 0 60222 23400.00000 0 -14604438.751 12602680.920 16715380.174 10 0 60222 24300.00000 0 -13700064.336 10614281.608 18739424.154 10 0 60222 25200.00000 0 -12868130.998 8351416.905 20400221.759 10 0 60222 26100.00000 0 -12154217.535 5860791.642 21665584.685 10 0 60222 27000.00000 0 -11595386.923 3197976.647 22510971.391 10 0 60222 27900.00000 0 -11218597.454 425352.254 22919959.750 10 0 60222 28800.00000 0 -11039554.792 -2390230.014 22884565.218 10 0 60222 29700.00000 0 -11062052.863 -5179972.125 22405398.574 10 0 60222 30600.00000 0 -11277831.260 -7875737.467 21491660.050 10 0 60222 31500.00000 0 -11666955.503 -10412635.236 20160969.485 10 0 60222 32400.00000 0 -12198704.818 -12731475.307 18439035.042 10 0 60222 33300.00000 0 -12832930.889 -14780992.614 16359165.830 10 0 60222 34200.00000 0 -13521831.370 -16519749.175 13961636.793 10 0 60222 35100.00000 0 -14212064.240 -17917634.952 11292917.009 10 0 60222 36000.00000 0 -14847114.534 -18956905.098 8404775.343 10 0 60222 36900.00000 0 -15369813.892 -19632710.154 5353280.090 10 0 60222 37800.00000 0 -15724906.443 -19953096.993 2197711.560 10 0 60222 38700.00000 0 -15861552.099 -19938480.359 -1000591.341 10 0 60222 39600.00000 0 -15735660.539 -19620607.339 -4179427.779 10 0 60222 40500.00000 0 -15311955.959 -19041058.613 -7276951.054 10 0 60222 41400.00000 0 -14565683.850 -18249350.098 -10232879.561 10 0 60222 42300.00000 0 -13483886.099 -17300715.748 -12989678.115 10 0 60222 43200.00000 0 -12066189.006 -16253665.865 -15493685.684 10 0 60222 44100.00000 0 -10325069.476 -15167424.847 -17696166.766 10 0 60222 45000.00000 0 -8285586.853 -14099357.351 -19554265.243 10 0 60222 45900.00000 0 -5984590.520 -13102492.191 -21031841.773 10 0 60222 46800.00000 0 -3469435.583 -12223248.879 -22100178.251 10 0 60222 47700.00000 0 -796259.729 -11499462.944 -22738535.703 10 0 60222 48600.00000 0 1972107.287 -10958793.170 -22934555.051 10 0 60222 49500.00000 0 4768514.706 -10617577.556 -22684493.315 10 0 60222 50400.00000 0 7524043.891 -10480185.649 -21993291.121 10 0 60222 51300.00000 0 10170637.576 -10538893.803 -20874470.636 10 0 60222 52200.00000 0 12643696.256 -10774287.762 -19349866.315 10 0 60222 53100.00000 0 14884534.146 -11156174.777 -17449194.040 10 0 60222 54000.00000 0 16842593.203 -11644965.890 -15209467.327 10 0 60222 54900.00000 0 18477323.844 -12193469.325 -12674272.173 10 0 60222 55800.00000 0 19759655.012 -12749018.592 -9892914.893 10 0 60222 56700.00000 0 20672993.454 -13255844.851 -6919459.768 10 0 60222 57600.00000 0 21213711.906 -13657592.901 -3811675.432 10 0 60222 58500.00000 0 21391107.186 -13899874.149 -629910.784 10 0 60222 59400.00000 0 21226831.523 -13932748.465 2564077.461 10 0 60222 60300.00000 0 20753822.445 -13713029.967 5708322.633 10 0 60222 61200.00000 0 20014777.408 -13206319.304 8741847.932 10 0 60222 62100.00000 0 19060238.364 -12388676.612 11605844.989 10 0 60222 63000.00000 0 17946367.452 -11247864.515 14244808.511 10 0 60222 63900.00000 0 16732507.673 -9784108.606 16607605.375 10 0 60222 64800.00000 0 15478631.049 -8010342.998 18648458.095 10 0 60222 65700.00000 0 14242781.051 -5951929.940 20327824.353 10 0 60222 66600.00000 0 13078616.070 -3645864.272 21613156.388 10 0 60222 67500.00000 0 12033156.148 -1139494.691 22479526.397 10 0 60222 68400.00000 0 11144826.566 1511186.374 22910106.569 10 0 60222 69300.00000 0 10441879.493 4243614.712 22896494.958 10 0 60222 70200.00000 0 9941259.143 6991003.757 22438881.150 10 0 60222 71100.00000 0 9647957.575 9684875.652 21546048.389 10 0 60222 72000.00000 0 9554888.015 12257670.417 20235211.680 10 0 60222 72900.00000 0 9643281.122 14645326.286 18531694.242 10 0 60222 73800.00000 0 9883587.940 16789725.098 16468447.556 10 0 60222 74700.00000 0 10236852.083 18640901.741 14085423.184 10 0 60222 75600.00000 0 10656493.952 20158926.056 11428807.415 10 0 60222 76500.00000 0 11090432.253 21315378.808 8550132.525 10 0 60222 77400.00000 0 11483453.546 22094359.892 5505281.162 10 0 60222 78300.00000 0 11779729.685 22492986.322 2353402.725 10 0 60222 79200.00000 0 11925376.322 22521358.853 -844237.309 10 0 60222 80100.00000 0 11870943.446 22201998.426 -4025452.457 10 0 60222 81000.00000 0 11573731.470 21568776.109 -7128350.843 10 0 60222 81900.00000 0 10999833.472 20665381.776 -10092546.947 10 0 60222 82800.00000 0 10125815.657 19543396.413 -12860344.896 10 0 60222 83700.00000 0 8939963.398 18260049.919 -15377869.346 10 0 60222 84600.00000 0 7443038.637 16875759.553 -17596121.099 10 0 60222 85500.00000 0 5648515.227 15451553.558 -19471936.214 99